{"data":{"norad_id":61884,"intl_designator":"2024-204L","name":"STARLINK-11359 [DTC]","alt_names":[],"object_type":"PAYLOAD","status":"ACTIVE","operator":null,"country":"US","launch_date":"2024-11-09","launch_site_code":"AFWTR","launch_vehicle":null,"mission":null,"orbit_class":"UNKNOWN","rcs_meters":null,"size_class":null,"mass_kg":null,"dimensions":null,"purposes":["comms"],"wikipedia_slug":null,"has_3d_model":false,"image_url":null,"decayed_at":null,"tle_current":{"epoch":"2026-05-24T19:43:59.972160Z","epoch_age_seconds":87068,"freshness":"FRESH","line1":"1 61884U 24204L   26144.82222190  .00000813  00000+0  11571-4 0  9992","line2":"2 61884  53.1601 340.8368 0001030 118.0404 242.0718 15.69702395 88871","mean_motion":15.69702395,"eccentricity":0.000103,"inclination_deg":53.1601,"raan_deg":340.8368,"arg_perigee_deg":118.0404,"mean_anomaly_deg":242.0718,"bstar":1.1571e-5,"rev_number":8887,"period_min":91.737134668766,"perigee_km":359.05451089876,"apogee_km":360.44251531445,"semimajor_km":6737.8855131066,"source":"CELESTRAK","updated_at":"2026-05-25T13:38:19.477167Z"}}}